Location: Newark
(54.2500°N, 9.1833°E)
Time: 12:28:57
(UTC+00:00)

Transit 4A - Visible Passes

Search period start: 16 December 2019 00:00
Search period end: 26 December 2019 00:00
Orbit: 870 x 974 km, 66.8° (Epoch: 15 December)

Date Brightness Start Highest point End Pass type
(mag) Time Alt. Az. Time Alt. Az. Time Alt. Az.
16 Dec 7.9 15:50:53 10° SW 15:57:03 89° SE 16:03:04 10° NE visible
16 Dec 9.0 17:38:33 10° W 17:44:04 35° NNW 17:46:54 23° NNE visible
16 Dec 9.7 19:27:17 10° NW 19:30:24 22° NNW 19:30:24 22° NNW visible
17 Dec 8.1 16:00:18 10° SW 16:06:26 72° NW 16:12:24 10° NE visible
17 Dec 9.1 17:48:25 10° W 17:53:44 30° NNW 17:56:02 24° NNE visible
17 Dec 9.9 19:37:00 10° NW 19:39:32 20° NNW 19:39:32 20° NNW visible
18 Dec 8.3 16:09:51 10° WSW 16:15:52 57° NW 16:21:39 11° NE visible
18 Dec 9.2 17:58:19 10° WNW 18:03:25 27° NNW 18:05:10 24° NNE visible
18 Dec 10.0 19:46:39 10° NW 19:48:40 18° NNW 19:48:40 18° NNW visible
19 Dec 8.6 16:19:31 10° WSW 16:25:22 46° NW 16:30:46 12° NE visible
19 Dec 9.2 18:08:11 10° WNW 18:13:08 26° N 18:14:17 24° N visible
19 Dec 10.1 19:56:12 10° NW 19:57:47 17° NNW 19:57:47 17° NNW visible
20 Dec 8.8 16:29:17 10° W 16:34:56 39° NNW 16:39:53 13° NE visible
20 Dec 9.2 18:18:02 10° WNW 18:22:52 24° N 18:23:24 24° N visible
20 Dec 10.2 20:05:41 10° NW 20:06:54 15° NNW 20:06:54 15° NNW visible
21 Dec 9.0 16:39:07 10° W 16:44:33 33° NNW 16:49:00 14° NE visible
21 Dec 9.3 18:27:48 10° NW 18:32:31 24° N 18:32:31 24° N visible
21 Dec 10.3 20:15:07 10° NW 20:16:01 14° NW 20:16:01 14° NW visible
22 Dec 9.1 16:49:00 10° W 16:54:12 29° NNW 16:58:07 15° NNE visible
22 Dec 9.3 18:37:30 10° NW 18:41:38 24° N 18:41:38 24° N visible
22 Dec 10.4 20:24:31 10° NW 20:25:08 13° NW 20:25:08 13° NW visible
23 Dec 9.2 16:58:53 10° WNW 17:03:54 27° NNW 17:07:14 17° NNE visible
23 Dec 9.4 18:47:06 10° NW 18:50:45 24° N 18:50:45 24° N visible
23 Dec 10.5 20:33:53 10° NW 20:34:16 12° NW 20:34:16 12° NW visible
24 Dec 9.2 17:08:45 10° WNW 17:13:38 25° N 17:16:22 18° NNE visible
24 Dec 9.4 18:56:38 10° NW 18:59:53 25° NNW 18:59:53 25° NNW visible
24 Dec 10.6 20:43:14 10° NW 20:43:23 11° NW 20:43:23 11° NW visible
25 Dec 9.2 17:18:34 10° NW 17:23:23 24° N 17:25:30 20° NNE visible
25 Dec 9.4 19:06:06 10° NW 19:09:01 24° NNW 19:09:01 24° NNW visible
